Location: Trento
(46.0670°N, 11.1330°E)
Time: 03:33:40
(UTC+02:00)

ISS - Visible Passes

Search period start: 01 July 2022 00:00
Search period end: 11 July 2022 00:00
Orbit: 414 x 420 km, 51.6° (Epoch: 30 June)

Date Brightness Start Highest point End Pass type
(mag) Time Alt. Az. Time Alt. Az. Time Alt. Az.
01 Jul -3.1 03:22:08 33° S 03:22:58 39° SE 03:26:09 10° ENE visible
02 Jul -2.1 02:35:35 23° ESE 02:35:35 23° ESE 02:37:43 10° E visible
02 Jul -3.4 04:08:28 12° WSW 04:11:28 62° NNW 04:14:49 10° ENE visible
03 Jul -1.0 01:48:58 10° E 01:48:58 10° E 01:49:00 10° E visible
03 Jul -3.8 03:21:51 33° WSW 03:23:14 89° NNW 03:26:38 10° ENE visible
04 Jul -3.7 02:35:10 59° SE 02:35:10 59° SE 02:38:23 10° ENE visible
04 Jul -2.4 04:08:47 10° W 04:11:57 38° NNW 04:15:08 10° ENE visible
05 Jul -2.0 01:48:27 23° E 01:48:27 23° E 01:50:02 10° ENE visible
05 Jul -2.9 03:21:19 17° W 03:23:37 47° NNW 03:26:54 10° ENE visible
06 Jul -3.4 02:34:31 45° W 02:35:19 64° NNW 02:38:40 10° ENE visible
06 Jul -1.9 04:09:26 10° WNW 04:12:28 30° N 04:15:31 10° ENE visible
07 Jul -3.3 01:47:39 57° ENE 01:47:39 57° ENE 01:50:25 10° ENE visible
07 Jul -2.1 03:20:58 10° WNW 03:24:04 33° N 03:27:10 10° ENE visible
08 Jul -1.9 01:00:40 23° ENE 01:00:40 23° ENE 01:02:06 10° ENE visible
08 Jul -2.4 02:33:32 18° WNW 02:35:40 38° NNW 02:38:51 10° ENE visible
08 Jul -1.8 04:09:54 10° WNW 04:12:57 31° N 04:16:01 10° ENE visible
09 Jul -1.1 00:13:35 11° ENE 00:13:35 11° ENE 00:13:41 10° ENE visible
09 Jul -2.9 01:46:26 38° WNW 01:47:17 48° NNW 01:50:34 10° ENE visible
09 Jul -1.8 03:21:30 10° WNW 03:24:31 30° N 03:27:33 10° ENE visible
10 Jul -3.4 00:59:06 65° N 00:59:06 65° N 01:02:16 10° ENE visible
10 Jul -1.8 02:33:01 10° WNW 02:36:04 31° N 02:39:06 10° ENE visible
10 Jul -2.3 04:10:07 10° WNW 04:13:20 41° NNE 04:16:33 10° E visible
